Track ONEWEB-0245 now! 10-day predictions ONEWEB-0245 is classified as:
1 48778U 21045M 22141.25001157 -.00040691 00000-0 -10857+0 0 9999 2 48778 87.9163 195.1011 0001643 107.7779 333.8398 13.15569466 1307